GW7255 Weather Reports


Display with metric or nautical units.
time (UTC)temp
F
wind
direction
speed
MPH
gust
MPH
rain 1hr
in
rain 24hr
in
rain mn
in
humidity
%
barometer
mb
20260504081523 53 230 7.0 9.0 0.00 0.00 0.00 45 1000.1
20260504044538 52 238 5.0 7.0 0.00 0.00 0.00 56 1001.6
20260504043028 52 239 3.0 7.0 0.00 0.00 0.00 56 1001.8
20260504041519 52 315 4.0 9.0 0.00 0.00 0.00 59 1001.9
20260504040047 53 360 7.0 9.0 0.00 0.00 0.00 57 1001.9
20260504034553 53 360 6.0 10.0 0.00 0.00 0.00 59 1001.9
20260504033040 53 360 8.0 10.0 0.00 0.00 0.00 59 1001.8
20260504031527 54 186 3.0 6.0 0.00 0.00 0.00 58 1001.6
20260504030108 56 360 2.0 4.0 0.00 0.00 0.00 60 1001.6
20260504024543 57 360 3.0 5.0 0.00 0.00 0.00 63 1001.5
20260504023030 58 360 0.0 3.0 0.00 0.00 0.00 64 1001.4
20260504021519 59 360 3.0 6.0 0.00 0.00 0.00 62 1001.4
20260504020047 60 155 3.0 6.0 0.00 0.00 0.00 59 1001.4
20260504014541 62 360 5.0 8.0 0.00 0.00 0.00 56 1001.5
20260504013038 64 360 6.0 10.0 0.00 0.00 0.00 54 1001.7
20260504011525 65 360 4.0 9.0 0.00 0.00 0.00 51 1001.9
20260504010047 66 360 4.0 8.0 0.00 0.00 0.00 49 1002.0
20260504004537 67 360 5.0 12.0 0.00 0.00 0.00 49 1002.2
20260504003039 67 133 10.0 14.0 0.00 0.00 0.00 47 1002.4
20260504001521 67 141 8.0 13.0 0.00 0.00 0.00 45 1002.7
20260504000123 68 360 10.0 13.0 0.00 0.00 0.00 45 1002.9
20260503234541 68 107 8.0 11.0 0.00 0.00 0.00 46 1003.1
20260503233038 67 360 7.0 13.0 0.00 0.00 0.00 46 1003.4
20260503231524 68 360 11.0 16.0 0.00 0.00 0.00 45 1003.5
20260503230056 68 175 11.0 19.0 0.00 0.00 0.00 43 1003.8
20260503224542 69 186 9.0 16.0 0.00 0.00 0.00 40 1004.2
20260503223030 68 360 9.0 17.0 0.00 0.00 0.00 41 1004.6
20260503221521 68 360 12.0 21.0 0.00 0.00 0.00 40 1004.9
20260503220049 67 155 8.0 17.0 0.00 0.00 0.00 43 1005.2
20260503214542 68 360 11.0 16.0 0.00 0.00 0.00 43 1005.2
20260503213033 66 360 10.0 15.0 0.00 0.00 0.00 45 1005.8
20260503211523 65 188 7.0 14.0 0.00 0.00 0.00 45 1005.8
20260503210049 62 360 5.0 10.0 0.00 0.00 0.00 56 1006.4
20260503204541 61 360 10.0 13.0 0.00 0.00 0.00 63 1007.0
20260503203035 60 217 13.0 17.0 0.00 0.00 0.00 55 1007.0
20260503201523 61 316 12.0 24.0 0.00 0.00 0.00 51 1006.7
20260503200050 64 316 18.0 25.0 0.00 0.00 0.00 50 1006.8
20260503194547 67 360 16.0 21.0 0.00 0.00 0.00 41 1006.4
20260503193036 70 333 8.0 12.0 0.00 0.00 0.00 37 1006.5
20260503191522 68 313 7.0 13.0 0.00 0.00 0.00 37 1006.9
20260503190050 67 257 8.0 16.0 0.00 0.00 0.00 37 1007.2
20260503184558 67 317 3.0 18.0 0.00 0.00 0.00 38 1007.4
20260503183033 67 22 11.0 16.0 0.00 0.00 0.00 37 1007.6
20260503181525 66 340 12.0 18.0 0.00 0.00 0.00 39 1007.8
20260503180054 66 360 10.0 16.0 0.00 0.00 0.00 40 1008.0
20260503174543 66 17 8.0 16.0 0.00 0.00 0.00 40 1008.2
20260503173036 65 315 5.0 14.0 0.00 0.00 0.00 43 1008.6
20260503171522 64 294 8.0 15.0 0.00 0.00 0.00 43 1009.0